Tracking 33197 objects as of 18-Feb-2026
HD Live streaming from Space Station
objects crossing your sky now

STARLINK-30793

Track STARLINK-30793 now!
10-day predictions
STARLINK-30793 is classified as:


NORAD ID: 58185
Int'l Code: 2023-167L
Perigee: 565.4 km
Apogee: 567.0 km
Inclination: 43.0 °
Period: 95.8 minutes
Semi major axis: 6937 km
RCS: Unknown
Launch date: October 30, 2023
Source: United States (US)
Launch site: AIR FORCE EASTERN TEST RANGE (AFETR)
Your satellite tracking list
Your tracking list is empty




NASA's NSSDC Master Catalog

Two Line Element Set (TLE):
1 58185U 23167L   26049.51595306  .00000249  00000-0  33537-4 0  9991
2 58185  43.0030 249.8943 0001141 271.4620  88.6092 15.02530964128073
Source of the keplerian elements: AFSPC